Retour au catalogue

FENGYUN 1C DEB

ActifLEO
NORAD 31493·DEBRIS·🇨🇳 China

Lancé May 10, 1999 depuis Taiyuan Satellite Launch Center

Loading…

Prochains Passages (prochaines 24 heures)

TLE

FraisSource: Space-Track

Époque: Sep 14, 2026, 02:54 UTC

1 31493U 99025BWG 26257.12101943  .00000412  00000-0  33464-3 0  9998
2 31493 100.1563 234.4345 0116435 170.4504 189.8905 13.93559666637014

Suivez FENGYUN 1C DEB en temps réel avec AllMySat

Download on the App Store